�N����,����,�~����,�C��,���x,�C��,����,���ϕ���,�ő�u�ԕ���,�ő厞����,���˗�,�I�_���x,�n�����x,�ő啗���N��,DTYPE
"17/04/09","00:10",0.0,17.5,97.8,1003.6,312.8,0.8,1.6,332.3,0.00,17.2,15.0,"00:03:04",1
"17/04/09","00:20",0.0,17.5,98.0,1003.4,299.5,0.3,0.8,318.1,0.00,17.2,14.8,"00:17:12",1
"17/04/09","00:30",0.0,17.6,97.2,1003.4,299.7,0.8,1.2,304.6,0.00,17.2,14.8,"00:24:48",1
"17/04/09","00:40",0.0,17.5,97.9,1003.4,331.9,1.1,1.3,320.6,0.00,17.2,14.8,"00:36:08",1
"17/04/09","00:50",0.0,17.5,97.9,1003.4,329.8,1.2,1.4,328.2,0.00,17.2,14.8,"00:48:48",1
"17/04/09","01:00",0.2,17.4,98.1,1003.1,324.7,1.0,1.2,334.9,0.00,17.1,14.7,"00:51:28",1
"17/04/09","01:10",0.0,17.6,97.2,1002.9,314.9,1.1,1.3,322.2,0.00,17.2,14.9,"01:06:56",1
"17/04/09","01:20",0.0,17.4,98.0,1003.1,325.9,1.3,1.7,335.9,0.00,17.1,14.8,"01:18:00",1
"17/04/09","01:30",0.0,17.6,97.2,1003.1,326.6,1.1,1.6,325.5,0.00,17.2,14.6,"01:22:16",1
"17/04/09","01:40",0.0,17.4,97.9,1002.4,290.3,0.5,1.7,316.5,0.00,17.1,14.6,"01:30:08",1
"17/04/09","01:50",0.0,17.3,98.0,1002.2,302.7,1.0,1.3,311.6,0.00,17.0,14.8,"01:48:32",1
"17/04/09","02:00",0.0,17.5,97.4,1002.2,297.5,1.1,1.4,318.7,0.00,17.1,14.9,"01:55:52",1
"17/04/09","02:10",0.0,17.4,98.0,1001.9,285.3,1.0,1.7,310.3,0.00,17.1,14.7,"02:06:00",1
"17/04/09","02:20",0.0,17.6,97.3,1001.9,295.5,1.1,1.8,324.9,0.00,17.2,14.7,"02:16:48",1
"17/04/09","02:30",0.0,17.4,98.0,1001.9,321.9,0.7,1.7,306.7,0.00,17.1,15.0,"02:23:20",1
"17/04/09","02:40",0.0,17.5,97.3,1001.7,329.5,0.8,1.7,318.8,0.00,17.1,14.9,"02:39:44",1
"17/04/09","02:50",0.0,17.3,98.0,1001.5,316.2,1.2,1.8,313.1,0.00,17.0,14.8,"02:41:20",1
"17/04/09","03:00",0.0,17.4,97.4,1001.5,339.3,0.6,1.2,325.5,0.00,17.0,14.7,"02:50:24",1
"17/04/09","03:10",0.0,17.2,97.9,1001.5,309.5,1.1,1.6,328.1,0.00,16.9,14.7,"03:06:56",1
"17/04/09","03:20",0.0,17.1,98.2,1001.2,324.7,1.1,1.3,323.0,0.00,16.9,14.6,"03:19:36",1
"17/04/09","03:30",0.0,17.2,97.5,1001.2,310.3,1.1,1.4,321.3,0.00,16.8,14.7,"03:23:28",1
"17/04/09","03:40",0.0,17.1,98.2,1001.5,296.6,1.0,1.4,305.8,0.00,16.9,14.8,"03:38:16",1
"17/04/09","03:50",0.0,17.3,97.5,1001.5,301.4,1.2,1.4,297.9,0.00,16.9,14.7,"03:45:20",1
"17/04/09","04:00",1.2,17.2,98.2,1001.5,304.3,0.8,1.6,306.5,0.00,17.0,14.9,"03:51:04",1
"17/04/09","04:10",0.6,17.4,97.5,1001.0,265.8,0.6,1.0,287.0,0.00,17.0,14.7,"04:09:04",1
"17/04/09","04:20",0.2,17.2,98.1,1000.5,310.2,1.1,1.4,318.3,0.00,16.9,14.6,"04:19:12",1
"17/04/09","04:30",0.8,17.4,97.5,1000.8,60.0,0.1,0.9,334.8,0.00,17.0,14.7,"04:20:08",1
"17/04/09","04:40",0.8,17.1,98.1,1001.0,293.7,1.0,1.6,297.0,0.00,16.8,14.7,"04:34:32",1
"17/04/09","04:50",0.2,17.2,97.3,1001.5,332.9,2.1,3.7,345.5,0.00,16.8,14.9,"04:46:48",1
"17/04/09","05:00",0.0,16.5,97.6,1001.7,340.6,4.4,8.6,339.7,0.00,16.2,14.7,"04:59:12",1
"17/04/09","05:10",0.0,16.1,97.3,1001.7,337.3,5.6,9.1,353.9,0.00,15.7,14.7,"05:04:24",1
"17/04/09","05:20",0.0,16.1,94.3,1001.7,327.8,5.7,8.7,316.8,0.00,15.2,14.5,"05:10:16",1
"17/04/09","05:30",0.0,16.2,92.5,1001.9,321.9,5.4,8.6,334.8,0.00,15.0,14.8,"05:29:36",1
"17/04/09","05:40",0.0,16.1,91.3,1001.9,330.2,5.0,8.8,320.8,0.00,14.7,14.8,"05:34:16",1
"17/04/09","05:50",0.0,15.8,90.4,1002.2,331.0,4.1,6.8,317.5,0.00,14.3,14.5,"05:40:16",1
"17/04/09","06:00",0.0,15.6,88.7,1002.6,318.0,4.1,8.2,336.7,0.00,13.8,14.6,"05:54:04",1
"17/04/09","06:10",0.0,15.6,87.6,1002.6,330.7,3.1,4.8,319.1,0.00,13.6,14.5,"06:02:40",1
"17/04/09","06:20",0.0,15.6,87.7,1002.4,348.5,1.7,2.9,337.4,0.00,13.6,14.6,"06:17:12",1
"17/04/09","06:30",0.0,15.5,88.5,1002.9,322.1,2.1,4.0,334.0,0.00,13.6,14.6,"06:29:20",1
"17/04/09","06:40",0.2,15.3,89.7,1002.9,309.7,1.8,2.9,339.1,0.00,13.7,14.6,"06:33:12",1
"17/04/09","06:50",0.0,15.2,90.5,1002.9,297.9,1.0,1.7,287.3,0.00,13.7,14.4,"06:43:06",1
"17/04/09","07:00",0.0,15.2,90.7,1002.6,334.9,0.6,1.3,329.4,0.00,13.7,14.4,"06:50:32",1
"17/04/09","07:10",0.2,15.0,91.1,1003.1,335.0,0.8,2.9,311.2,0.00,13.6,14.4,"07:09:52",1
"17/04/09","07:20",0.0,15.0,90.3,1003.1,332.7,2.6,4.7,341.7,0.00,13.5,14.2,"07:15:36",1
"17/04/09","07:30",0.0,15.0,90.2,1003.6,338.8,2.0,4.4,333.1,0.00,13.4,14.3,"07:28:32",1
"17/04/09","07:40",0.0,15.1,91.6,1003.6,293.0,2.3,4.4,318.6,0.01,13.8,14.4,"07:31:04",1
"17/04/09","07:50",0.0,15.0,92.1,1003.8,306.4,1.7,2.8,316.7,0.01,13.8,14.2,"07:42:24",1
"17/04/09","08:00",0.2,14.9,91.9,1003.6,340.8,1.2,2.6,355.4,0.02,13.6,14.2,"07:52:00",1
"17/04/09","08:10",0.0,15.0,92.3,1003.8,321.0,1.8,2.7,333.5,0.02,13.8,14.4,"08:01:28",1
"17/04/09","08:20",0.0,15.1,92.5,1004.1,308.0,1.7,3.3,315.2,0.02,13.9,14.7,"08:13:44",1
"17/04/09","08:30",0.0,15.1,92.3,1004.3,304.9,1.1,2.2,305.0,0.04,13.9,14.4,"08:29:52",1
"17/04/09","08:40",0.0,15.2,92.0,1004.3,332.6,2.0,2.8,336.7,0.04,13.9,14.4,"08:30:32",1
"17/04/09","08:50",0.0,15.1,90.2,1004.1,313.9,2.6,4.7,327.8,0.06,13.5,14.3,"08:46:40",1
"17/04/09","09:00",0.0,15.3,87.6,1004.5,321.7,3.2,4.9,322.1,0.08,13.3,14.4,"08:55:28",1
"17/04/09","09:10",0.0,15.5,86.4,1004.5,333.1,2.5,5.5,337.9,0.09,13.3,14.3,"09:00:08",1
"17/04/09","09:20",0.0,15.8,85.9,1004.8,329.7,2.3,3.9,316.6,0.15,13.5,14.4,"09:13:04",1
"17/04/09","09:30",0.0,16.2,84.8,1005.0,329.2,2.5,5.0,317.2,0.21,13.7,14.5,"09:23:36",1
"17/04/09","09:40",0.0,16.4,83.3,1005.0,334.3,2.2,4.0,338.5,0.20,13.6,14.6,"09:37:36",1
"17/04/09","09:50",0.0,16.2,81.1,1005.0,331.2,2.7,4.7,316.1,0.18,13.0,14.6,"09:45:52",1
"17/04/09","10:00",0.0,16.4,81.1,1005.5,342.8,2.7,5.1,345.0,0.22,13.2,14.4,"09:59:20",1
"17/04/09","10:10",0.0,16.4,81.2,1005.5,331.6,3.1,4.9,352.5,0.24,13.2,14.6,"10:04:00",1
"17/04/09","10:20",0.0,16.5,79.3,1005.0,343.1,2.8,8.0,340.0,0.25,12.9,14.7,"10:19:20",1
"17/04/09","10:30",0.0,16.5,78.8,1005.0,331.5,3.6,7.0,341.6,0.26,12.9,15.0,"10:21:36",1
"17/04/09","10:40",0.0,16.9,78.6,1005.0,340.6,3.2,6.0,339.9,0.29,13.2,15.0,"10:32:32",1
"17/04/09","10:50",0.0,16.9,77.5,1005.2,348.1,3.0,5.1,337.6,0.28,13.0,14.8,"10:40:16",1
"17/04/09","11:00",0.0,16.7,77.0,1005.0,346.9,2.7,5.2,350.9,0.20,12.7,15.0,"10:56:32",1
"17/04/09","11:10",0.0,16.8,78.0,1005.5,344.4,2.6,4.8,343.6,0.22,13.0,15.1,"11:07:36",1
"17/04/09","11:20",0.0,16.3,77.5,1005.2,335.6,4.2,6.6,326.1,0.19,12.4,15.1,"11:16:16",1
"17/04/09","11:30",0.0,16.6,76.5,1005.0,340.4,2.8,5.2,341.1,0.22,12.5,15.1,"11:23:04",1
"17/04/09","11:40",0.0,16.8,75.8,1004.8,345.2,2.5,5.6,349.1,0.30,12.5,15.2,"11:33:36",1
"17/04/09","11:50",0.0,16.4,77.8,1004.5,337.7,3.6,5.7,347.1,0.20,12.6,15.2,"11:44:40",1
"17/04/09","12:00",0.0,16.2,76.8,1004.5,352.6,2.7,5.5,334.7,0.17,12.2,15.1,"11:54:40",1
"17/04/09","12:10",0.0,16.7,79.6,1004.3,349.5,2.3,5.0,339.6,0.21,13.2,15.4,"12:06:08",1
"17/04/09","12:20",0.0,16.2,77.0,1004.5,346.4,3.4,6.4,333.5,0.21,12.2,15.3,"12:19:36",1
"17/04/09","12:30",0.0,16.0,76.4,1005.0,356.8,2.6,4.1,350.2,0.20,11.9,15.3,"12:26:32",1
"17/04/09","12:40",0.0,15.3,79.7,1004.8,0.0,3.0,6.3,337.7,0.14,11.9,15.3,"12:38:32",1
"17/04/09","12:50",0.0,15.1,79.8,1004.8,357.0,3.4,8.0,333.1,0.14,11.7,15.5,"12:41:20",1
"17/04/09","13:00",0.0,14.9,80.7,1005.0,351.7,3.0,6.0,7.1,0.14,11.7,15.1,"12:51:52",1
"17/04/09","13:10",0.0,14.9,79.9,1004.8,347.2,3.1,6.8,352.0,0.17,11.5,15.2,"13:01:28",1
"17/04/09","13:20",0.0,14.7,80.8,1004.8,352.1,3.0,5.5,16.2,0.14,11.5,15.2,"13:14:48",1
"17/04/09","13:30",0.0,14.8,80.4,1005.0,342.5,4.0,7.4,334.8,0.16,11.5,15.1,"13:28:00",1
"17/04/09","13:40",0.0,14.8,80.3,1004.5,350.5,3.1,6.0,340.9,0.16,11.5,15.2,"13:30:02",1
"17/04/09","13:50",0.0,14.7,79.6,1005.0,342.8,4.1,8.0,334.6,0.09,11.3,15.2,"13:41:28",1
"17/04/09","14:00",0.0,14.5,80.3,1005.0,339.3,3.6,6.5,324.2,0.10,11.2,15.2,"13:51:36",1
"17/04/09","14:10",0.0,14.6,81.9,1005.2,339.5,3.2,6.4,354.5,0.10,11.6,14.9,"14:04:08",1
"17/04/09","14:20",0.0,14.4,80.7,1005.2,336.0,4.0,7.2,333.1,0.10,11.2,15.0,"14:10:56",1
"17/04/09","14:30",0.0,14.3,81.0,1005.2,341.5,3.6,6.4,355.2,0.10,11.1,15.0,"14:23:52",1
"17/04/09","14:40",0.0,14.4,80.4,1005.2,328.2,4.2,6.5,334.4,0.13,11.1,15.0,"14:35:28",1
"17/04/09","14:50",0.0,14.6,78.8,1005.2,320.7,4.9,7.0,323.0,0.15,11.0,14.9,"14:46:00",1
"17/04/09","15:00",0.0,14.6,77.7,1005.0,328.2,4.6,8.6,334.7,0.15,10.8,14.8,"14:53:36",1
"17/04/09","15:10",0.0,14.6,77.4,1005.0,328.1,5.4,8.9,310.8,0.13,10.7,15.1,"15:02:48",1
"17/04/09","15:20",0.0,14.9,77.6,1005.0,331.1,4.1,7.4,319.5,0.14,11.1,15.1,"15:10:24",1
"17/04/09","15:30",0.0,14.8,78.3,1004.8,327.0,4.0,7.2,341.3,0.13,11.1,14.9,"15:26:00",1
"17/04/09","15:40",0.0,14.7,77.6,1005.0,323.1,4.2,7.2,313.6,0.11,10.9,15.1,"15:39:28",1
"17/04/09","15:50",0.0,14.7,77.5,1005.2,327.5,4.0,8.0,332.1,0.10,10.9,14.8,"15:48:24",1
"17/04/09","16:00",0.0,14.8,78.5,1005.5,325.2,3.5,5.5,329.2,0.11,11.1,15.0,"15:52:00",1
"17/04/09","16:10",0.0,15.0,77.2,1005.5,329.9,2.6,4.2,333.8,0.11,11.1,14.8,"16:04:56",1
"17/04/09","16:20",0.0,14.9,76.1,1005.5,328.3,4.2,7.5,345.6,0.08,10.8,14.8,"16:11:44",1
"17/04/09","16:30",0.0,14.8,75.8,1005.2,335.4,3.6,7.4,332.6,0.09,10.6,14.9,"16:23:52",1
"17/04/09","16:40",0.0,14.5,76.3,1005.7,336.9,4.2,11.8,333.9,0.09,10.4,14.6,"16:34:40",1
"17/04/09","16:50",0.0,14.4,77.1,1005.7,346.2,3.9,5.9,320.7,0.08,10.5,14.7,"16:46:00",1
"17/04/09","17:00",0.0,14.2,76.9,1006.0,338.2,4.0,6.3,317.1,0.04,10.3,14.7,"16:56:24",1
"17/04/09","17:10",0.0,14.0,78.0,1006.2,338.5,3.5,6.7,337.7,0.01,10.3,14.7,"17:04:32",1
"17/04/09","17:20",0.0,13.8,78.2,1006.0,336.8,3.4,6.6,336.9,0.01,10.1,14.5,"17:12:32",1
"17/04/09","17:30",0.0,13.6,78.5,1006.2,333.0,4.6,10.3,336.1,0.01,10.0,14.5,"17:22:40",1
"17/04/09","17:40",0.0,13.5,78.8,1006.4,333.7,3.9,6.0,327.2,0.00,9.9,14.5,"17:32:56",1
"17/04/09","17:50",0.0,13.4,79.4,1006.2,334.6,3.4,5.7,335.1,0.00,10.0,14.6,"17:42:40",1
"17/04/09","18:00",0.0,13.2,79.1,1006.7,323.2,3.2,5.4,295.7,0.00,9.7,14.5,"17:55:52",1
"17/04/09","18:10",0.0,13.1,79.4,1007.6,326.6,3.4,6.0,334.3,0.00,9.7,14.5,"18:03:52",1
"17/04/09","18:20",0.0,12.9,79.8,1007.6,338.7,3.2,5.1,50.0,0.00,9.5,14.4,"18:16:00",1
"17/04/09","18:30",0.0,12.9,79.8,1007.8,325.3,3.2,4.9,341.5,0.00,9.5,14.2,"18:27:36",1
"17/04/09","18:40",0.0,12.8,79.0,1007.8,340.4,3.5,6.6,324.8,0.00,9.3,14.2,"18:32:48",1
"17/04/09","18:50",0.0,12.7,78.8,1008.1,341.2,2.6,5.4,332.5,0.00,9.2,14.2,"18:45:52",1
"17/04/09","19:00",0.0,12.6,78.9,1008.6,310.6,2.0,3.2,309.1,0.00,9.1,14.1,"18:56:48",1
"17/04/09","19:10",0.0,12.6,79.0,1008.8,326.2,2.5,5.6,326.7,0.00,9.1,14.0,"19:08:24",1
"17/04/09","19:20",0.0,12.5,78.4,1008.8,313.6,2.0,3.5,329.5,0.00,8.9,14.0,"19:15:36",1
"17/04/09","19:30",0.0,12.5,77.2,1008.8,320.0,2.8,5.2,310.4,0.00,8.7,14.1,"19:21:20",1
"17/04/09","19:40",0.0,12.4,77.9,1009.0,319.0,1.8,3.7,332.5,0.00,8.7,13.9,"19:32:00",1
"17/04/09","19:50",0.0,12.3,76.7,1009.0,318.0,2.3,5.2,324.3,0.00,8.4,14.0,"19:46:40",1
"17/04/09","20:00",0.0,12.2,76.5,1009.0,309.4,1.8,3.9,300.1,0.00,8.2,13.9,"19:56:00",1
"17/04/09","20:10",0.0,12.1,76.6,1009.3,329.6,3.2,5.4,320.1,0.00,8.2,13.8,"20:04:50",1
"17/04/09","20:20",0.0,12.1,76.1,1009.3,315.7,3.2,5.1,340.4,0.00,8.1,13.7,"20:10:16",1
"17/04/09","20:30",0.0,11.8,76.4,1009.5,327.7,2.5,4.8,346.5,0.00,7.8,13.7,"20:28:36",1
"17/04/09","20:40",0.0,11.7,76.1,1009.7,328.5,3.5,6.0,327.3,0.00,7.7,13.7,"20:38:42",1
"17/04/09","20:50",0.0,11.6,76.7,1009.5,335.3,4.1,6.8,316.9,0.00,7.7,13.4,"20:47:30",1
"17/04/09","21:00",0.0,11.3,77.3,1009.7,325.7,3.5,5.8,316.9,0.00,7.5,13.3,"20:51:44",1
"17/04/09","21:10",0.0,11.1,76.5,1009.7,319.7,3.7,7.0,329.1,0.00,7.2,13.5,"21:01:52",1
"17/04/09","21:20",0.0,10.8,76.5,1009.7,325.6,2.1,4.5,353.9,0.00,6.9,13.3,"21:10:56",1
"17/04/09","21:30",0.0,10.5,75.6,1009.5,299.4,1.3,3.1,333.9,0.00,6.4,13.4,"21:27:04",1
"17/04/09","21:40",0.0,10.5,73.1,1010.0,45.9,1.2,3.3,359.7,0.00,5.9,13.2,"21:33:24",1
"17/04/09","21:50",0.0,10.3,72.4,1010.0,262.7,1.5,3.5,329.3,0.00,5.6,13.2,"21:43:12",1
"17/04/09","22:00",0.0,10.1,72.3,1010.4,294.2,1.5,3.1,331.5,0.00,5.4,13.2,"21:59:20",1
"17/04/09","22:10",0.0,9.9,71.9,1010.7,268.3,1.5,2.6,222.7,0.00,5.1,12.9,"22:07:12",1
"17/04/09","22:20",0.2,9.8,71.7,1010.4,252.1,1.0,2.1,171.0,0.00,5.0,13.0,"22:10:40",1
"17/04/09","22:30",0.0,9.6,72.3,1010.4,313.8,1.7,2.5,315.1,0.00,4.9,12.9,"22:24:08",1
"17/04/09","22:40",0.0,9.7,70.6,1010.2,247.8,1.5,4.1,249.7,0.00,4.7,12.9,"22:36:00",1
"17/04/09","22:50",0.0,9.6,69.9,1010.4,312.7,1.8,4.3,315.1,0.00,4.4,12.8,"22:48:18",1
"17/04/09","23:00",0.0,9.4,70.7,1010.4,313.6,1.5,3.1,356.1,0.00,4.4,12.9,"22:51:46",1
"17/04/09","23:10",0.0,9.2,71.5,1010.4,316.0,0.5,1.7,338.1,0.00,4.4,12.7,"23:03:54",1
"17/04/09","23:20",0.0,9.1,72.3,1010.7,274.7,1.7,2.4,285.8,0.00,4.4,12.6,"23:13:06",1
"17/04/09","23:30",0.0,9.2,71.2,1011.2,293.0,2.2,3.4,321.7,0.00,4.3,12.5,"23:25:28",1
"17/04/09","23:40",0.0,9.1,72.2,1010.9,306.7,2.3,3.3,332.9,0.00,4.4,12.7,"23:37:20",1
"17/04/09","23:50",0.0,8.9,74.5,1011.2,334.5,2.5,4.7,338.4,0.00,4.7,12.5,"23:47:44",1
"17/04/09","24:00",0.0,8.7,75.3,1010.9,328.7,2.7,4.8,310.7,0.00,4.6,12.4,"23:50:48",1
